Satellite: HO-59
Catalog number: 29484
Epoch time: 07017.04262462
Element set: 159
Inclination: 098.3119 deg
RA of node: 045.1084 deg
Eccentricity: 0.0251429
Arg of perigee: 083.3162 deg
Mean anomaly: 279.7146 deg
Mean motion: 15.39350580 rev/day
Decay rate: 3.0232e-04 rev/day^2
Epoch rev: 1773
Checksum: 307
Satellite: NO-60
Catalog number: 29661
Epoch time: 07016.77891628
Element set: 37
Inclination: 051.6404 deg
RA of node: 164.8737 deg
Eccentricity: 0.0013452
Arg of perigee: 117.5366 deg
Mean anomaly: 242.7041 deg
Mean motion: 15.84984521 rev/day
Decay rate: 5.3018e-04 rev/day^2
Epoch rev: 424
Checksum: 304
Satellite: NO-61
Catalog number: 29667
Epoch time: 07016.86393964
Element set: 25
Inclination: 051.6345 deg
RA of node: 164.6746 deg
Eccentricity: 0.0017591
Arg of perigee: 114.1218 deg
Mean anomaly: 246.1630 deg
Mean motion: 15.82842339 rev/day
Decay rate: 1.6582e-04 rev/day^2
Epoch rev: 399
Checksum: 323
/EX
SB KEPS @ AMSAT $ORB07017.W
Orbital Elements 07017.WEATHER
HR AMSAT ORBITAL ELEMENTS FOR WEATHER SATELLITES
FROM WA5QGD FORT WORTH,TX January 17, 2007
Send SUBSCRIBE KEPS/UNSUBSCRIBE KEPS to majordomo(a)amsat.org only
BID: ORB07017.W
TO ALL RADIO AMATEURS BT
Satellite: NOAA-10
Catalog number: 16969
Epoch time: 07016.88483107
Element set: 0505
Inclination: 098.7546 deg
RA of node: 033.9116 deg
Eccentricity: 0.0011725
Arg of perigee: 247.4109 deg
Mean anomaly: 112.5829 deg
Mean motion: 14.27314546 rev/day
Decay rate: -1.00e-06 rev/day^2
Epoch rev: 05764
Checksum: 299
Satellite: NOAA-11
Catalog number: 19531
Epoch time: 07016.86383184
Element set: 0481
Inclination: 098.8187 deg
RA of node: 107.8970 deg
Eccentricity: 0.0012401
Arg of perigee: 100.8643 deg
Mean anomaly: 259.3917 deg
Mean motion: 14.14833580 rev/day
Decay rate: 2.00e-06 rev/day^2
Epoch rev: 94475
Checksum: 306
Satellite: NOAA-12
Catalog number: 21263
Epoch time: 07016.76447475
Element set: 0976
Inclination: 098.7456 deg
RA of node: 014.3120 deg
Eccentricity: 0.0012843
Arg of perigee: 183.9638 deg
Mean anomaly: 176.1434 deg
Mean motion: 14.25519991 rev/day
Decay rate: -7.2e-07 rev/day^2
Epoch rev: 81467
Checksum: 322
Satellite: MET-3/5
Catalog number: 21655
Epoch time: 07016.91688811
Element set: 0284
Inclination: 082.5563 deg
RA of node: 109.8273 deg
Eccentricity: 0.0012567
Arg of perigee: 222.8753 deg
Mean anomaly: 137.1391 deg
Mean motion: 13.17007998 rev/day
Decay rate: 5.1e-07 rev/day^2
Epoch rev: 74149
Checksum: 318
Satellite: MET-2/21
Catalog number: 22782
Epoch time: 07016.86884608
Element set: 0725
Inclination: 082.5480 deg
RA of node: 161.9516 deg
Eccentricity: 0.0021145
Arg of perigee: 302.7595 deg
Mean anomaly: 057.1530 deg
Mean motion: 13.83614529 rev/day
Decay rate: 2.9e-07 rev/day^2
Epoch rev: 67559
Checksum: 319
Satellite: OKEAN-4
Catalog number: 23317
Epoch time: 07017.73172758
Element set: 162
Inclination: 082.5392 deg
RA of node: 076.9032 deg
Eccentricity: 0.0023155
Arg of perigee: 032.2517 deg
Mean anomaly: 328.0137 deg
Mean motion: 14.82456896 rev/day
Decay rate: 2.31e-06 rev/day^2
Epoch rev: 66176
Checksum: 295
Satellite: NOAA-14
Catalog number: 23455
Epoch time: 07016.54966638
Element set: 0470
Inclination: 099.0120 deg
RA of node: 081.7944 deg
Eccentricity: 0.0009810
Arg of perigee: 165.2244 deg
Mean anomaly: 194.9217 deg
Mean motion: 14.13691638 rev/day
Decay rate: -1.64e-06 rev/day^2
Epoch rev: 62121
Checksum: 301
Satellite: SICH-1
Catalog number: 23657
Epoch time: 07016.65606206
Element set: 0963
Inclination: 082.5260 deg
RA of node: 218.8004 deg
Eccentricity: 0.0024591
Arg of perigee: 024.9145 deg
Mean anomaly: 335.3255 deg
Mean motion: 14.81441163 rev/day
Decay rate: 9.9e-07 rev/day^2
Epoch rev: 61359
Checksum: 291
Satellite: NOAA-15
Catalog number: 25338
Epoch time: 07016.88896572
Element set: 0833
Inclination: 098.5257 deg
RA of node: 017.8837 deg
Eccentricity: 0.0011371
Arg of perigee: 109.5333 deg
Mean anomaly: 250.7081 deg
Mean motion: 14.24622862 rev/day
Decay rate: 1.88e-06 rev/day^2
Epoch rev: 45114
Checksum: 317
Satellite: RESURS
Catalog number: 25394
Epoch time: 07017.71521558
Element set: 550
Inclination: 098.4661 deg
RA of node: 078.0434 deg
Eccentricity: 0.0000731
Arg of perigee: 294.5811 deg
Mean anomaly: 065.5289 deg
Mean motion: 14.24124255 rev/day
Decay rate: -2.2e-07 rev/day^2
Epoch rev: 44293
Checksum: 285
Satellite: FENGYUN1
Catalog number: 25730
Epoch time: 07011.90621003
Element set: 932
Inclination: 098.6464 deg
RA of node: 001.7411 deg
Eccentricity: 0.0013513
Arg of perigee: 266.0357 deg
Mean anomaly: 094.0215 deg
Mean motion: 14.11820274 rev/day
Decay rate: 1.80e-06 rev/day^2
Epoch rev: 39546
Checksum: 251
Satellite: OKEAN-0
Catalog number: 25860
Epoch time: 07016.58978980
Element set: 954
Inclination: 097.7304 deg
RA of node: 025.9340 deg
Eccentricity: 0.0001599
Arg of perigee: 101.1608 deg
Mean anomaly: 258.9782 deg
Mean motion: 14.73423297 rev/day
Decay rate: 6.4e-07 rev/day^2
Epoch rev: 40317
Checksum: 320
Satellite: NOAA-16
Catalog number: 26536
Epoch time: 07016.87585642
Element set: 0235
Inclination: 099.0977 deg
RA of node: 351.3332 deg
Eccentricity: 0.0009965
Arg of perigee: 237.5923 deg
Mean anomaly: 122.4260 deg
Mean motion: 14.12398073 rev/day
Decay rate: -1.08e-06 rev/day^2
Epoch rev: 32574
Checksum: 315
Satellite: NOAA-17
Catalog number: 27453
Epoch time: 07016.59241929
Element set: 0253
Inclination: 098.6000 deg
RA of node: 089.4161 deg
Eccentricity: 0.0012161
Arg of perigee: 171.6791 deg
Mean anomaly: 188.4605 deg
Mean motion: 14.23846060 rev/day
Decay rate: 1.39e-06 rev/day^2
Epoch rev: 23714
Checksum: 295
Satellite: NOAA-18
Catalog number: 28654
Epoch time: 07016.57962175
Element set: 0802
Inclination: 098.8132 deg
RA of node: 320.5346 deg
Eccentricity: 0.0014188
Arg of perigee: 340.6572 deg
Mean anomaly: 019.4047 deg
Mean motion: 14.11028321 rev/day
Decay rate: -9.9e-07 rev/day^2
Epoch rev: 08547
Checksum: 305
/EX
SB KEPS @ AMSAT $ORB07017.M
Orbital Elements 07017.MISC
HR AMSAT ORBITAL ELEMENTS FOR MANNED AND MISCELLANEOUS SATELLITES
FROM WA5QGD FORT WORTH,TX January 17, 2007
Send SUBSCRIBE KEPS/UNSUBSCRIBE KEPS to majordomo(a)amsat.org only
BID: ORB07017.M
TO ALL RADIO AMATEURS BT
Satellite: HUBBLE
Catalog number: 20580
Epoch time: 07016.59413632
Element set: 0785
Inclination: 028.4666 deg
RA of node: 098.5903 deg
Eccentricity: 0.0003665
Arg of perigee: 282.1692 deg
Mean anomaly: 077.8484 deg
Mean motion: 15.00175874 rev/day
Decay rate: 4.09e-06 rev/day^2
Epoch rev: 71717
Checksum: 319
Satellite: UARS
Catalog number: 21701
Epoch time: 07016.97555171
Element set: 0973
Inclination: 056.9775 deg
RA of node: 249.2908 deg
Eccentricity: 0.0090997
Arg of perigee: 259.2208 deg
Mean anomaly: 099.8599 deg
Mean motion: 15.46395019 rev/day
Decay rate: 3.538e-05 rev/day^2
Epoch rev: 84234
Checksum: 359
Satellite: PO-34
Catalog number: 25520
Epoch time: 07015.47657851
Element set: 0661
Inclination: 028.4599 deg
RA of node: 050.7509 deg
Eccentricity: 0.0004914
Arg of perigee: 033.7542 deg
Mean anomaly: 326.3364 deg
Mean motion: 15.16903372 rev/day
Decay rate: 5.43e-06 rev/day^2
Epoch rev: 45431
Checksum: 298
